This is the latest recevied weather packets stored in our database for station/object N3WXO-1. If no packets are shown the sender has not sent any weather packets the latest 10 day(s).
| Time | Temp. | Humidity | Pressure | Rain* | Wind** | Luminosity | Snow |
|---|---|---|---|---|---|---|---|
| 1777212036 | 10° C | 83% | 1019.9 hPa | 0 mm | - | 271 W/m² | - |
| 1777211726 | 10° C | 84% | 1019.7 hPa | 0 mm | - | 276 W/m² | - |
| 1777211421 | 9.44° C | 85% | 1019.5 hPa | 0 mm | - | 309 W/m² | - |
| 1777211131 | 9.44° C | 87% | 1019.6 hPa | 0 mm | - | 255 W/m² | - |
| 1777210820 | 9.44° C | 89% | 1019.6 hPa | 0 mm | - | 230 W/m² | - |
| 1777210531 | 9.44° C | 90% | 1019.4 hPa | 0 mm | - | 279 W/m² | - |
| 1777210230 | 8.89° C | 94% | 1019.5 hPa | 0 mm | - | 383 W/m² | - |
| 1777209923 | 8.89° C | 95% | 1019.5 hPa | 0 mm | - | 404 W/m² | - |
| 1777209633 | 8.33° C | 96% | 1019.5 hPa | 0 mm | - | 468 W/m² | - |
| 1777209327 | 8.33° C | 97% | 1019.5 hPa | 0 mm | - | 218 W/m² | - |
| 1777209018 | 7.78° C | 97% | 1019.5 hPa | 0 mm | - | 220 W/m² | - |
| 1777208734 | 7.78° C | 97% | 1019.4 hPa | 0 mm | - | 408 W/m² | - |
| 1777208430 | 7.78° C | 97% | 1019.5 hPa | 0 mm | - | 271 W/m² | - |
| 1777208130 | 7.22° C | 97% | 1019.4 hPa | 0 mm | - | 371 W/m² | - |
| 1777207826 | 7.22° C | 97% | 1019.5 hPa | 0 mm | - | 220 W/m² | - |
| 1777207520 | 7.22° C | 97% | 1019.5 hPa | 0 mm | - | 155 W/m² | - |
| 1777207233 | 6.67° C | 97% | 1019.5 hPa | 0 mm | - | 148 W/m² | - |
| 1777206929 | 6.67° C | 97% | 1019.5 hPa | 0 mm | - | 134 W/m² | - |
| 1777206626 | 6.67° C | 97% | 1019.4 hPa | 0 mm | - | 132 W/m² | - |
| 1777206320 | 6.67° C | 97% | 1019.6 hPa | 0 mm | - | 130 W/m² | - |
| 1777206017 | 6.11° C | 97% | 1019.6 hPa | 0 mm | - | 123 W/m² | - |
| 1777205723 | 6.11° C | 97% | 1019.4 hPa | 0 mm | - | 105 W/m² | - |
| 1777205432 | 6.11° C | 97% | 1019.4 hPa | 0 mm | - | 102 W/m² | - |
| 1777204832 | 6.11° C | 97% | 1019.3 hPa | 0 mm | - | 90 W/m² | - |
| 1777204520 | 6.11° C | 97% | 1019.2 hPa | 0 mm | - | 81 W/m² | - |
* Rain latest hour (hover to see other rain measurements)
** Current wind speed in m/s (hover to see current wind gust speed)